Location: Poughquag
(41.6090°N, 73.6820°W)
Time: 17:30:40
(UTC-05:00)

XW-2D - Visible Passes

Search period start: 28 November 2023 00:00
Search period end: 08 December 2023 00:00
Orbit: 455 x 465 km, 97.5° (Epoch: 28 November)

Date Brightness Start Highest point End Pass type
(mag) Time Alt. Az. Time Alt. Az. Time Alt. Az.
28 Nov ? 06:24:16 10° NNE 06:27:44 59° E 06:31:10 10° S visible
28 Nov ? 16:57:33 10° ESE 17:00:13 21° ENE 17:02:55 10° NNE visible
28 Nov ? 18:30:24 10° SW 18:33:05 21° W 18:35:47 10° NW visible
29 Nov ? 05:53:04 10° NE 05:55:52 22° E 05:58:38 10° SSE visible
29 Nov ? 17:57:47 10° S 18:01:11 56° W 18:04:36 10° NNW visible
30 Nov ? 17:26:01 10° SSE 17:29:22 49° ENE 17:32:45 10° N visible
01 Dec ? 06:21:47 10° NNE 06:25:12 53° E 06:28:36 10° S visible
01 Dec ? 16:55:06 10° ESE 16:57:39 20° ENE 17:00:14 10° NNE visible
01 Dec ? 18:27:40 10° SSW 18:30:27 23° W 18:33:17 10° NW visible
02 Dec ? 05:50:31 10° NE 05:53:10 20° E 05:55:48 10° SE visible
02 Dec ? 17:55:00 10° S 17:58:24 63° W 18:01:52 10° NNW visible
03 Dec ? 17:23:09 10° SSE 17:26:27 44° ENE 17:29:47 10° N visible
04 Dec ? 06:18:48 10° NNE 06:22:11 48° E 06:25:32 10° S visible
04 Dec ? 18:24:26 10° SSW 18:27:20 25° W 18:30:17 10° NW visible
05 Dec ? 05:47:29 10° NE 05:49:58 18° E 05:52:25 10° SE visible
05 Dec ? 17:51:43 10° S 17:55:09 71° W 17:58:37 10° NNW visible
06 Dec ? 17:19:48 10° SE 17:23:02 39° ENE 17:26:19 10° N visible
06 Dec ? 18:55:02 10° WSW 18:56:10 11° W 18:57:18 10° WNW visible
07 Dec ? 06:15:20 10° NNE 06:18:39 42° E 06:21:56 10° S visible
07 Dec ? 18:20:43 10° SSW 18:23:43 28° W 18:26:46 10° NW visible
